TimeMST,TemperatureF,Dew PointF,Humidity,Sea Level PressureIn,VisibilityMPH,Wind Direction,Wind SpeedMPH,Gust SpeedMPH,PrecipitationIn,Events,Conditions,WindDirDegrees,DateUTC
12:55 AM,37.9,26.1,62,29.78,10.0,West,10.4,-,N/A,,Clear,280,2013-12-18 07:55:00
1:55 AM,37.9,25.0,60,29.77,10.0,West,12.7,-,N/A,,Clear,270,2013-12-18 08:55:00
2:55 AM,37.9,25.0,60,29.76,10.0,West,9.2,-,N/A,,Clear,280,2013-12-18 09:55:00
3:55 AM,37.9,25.0,60,29.75,10.0,West,9.2,-,N/A,,Clear,270,2013-12-18 10:55:00
4:55 AM,37.0,25.0,62,29.75,10.0,West,6.9,-,N/A,,Clear,280,2013-12-18 11:55:00
5:55 AM,37.0,25.0,62,29.74,10.0,West,11.5,-,N/A,,Clear,270,2013-12-18 12:55:00
6:55 AM,33.1,23.0,66,29.76,10.0,North,5.8,-,N/A,,Clear,350,2013-12-18 13:55:00
7:55 AM,30.9,23.0,72,29.77,10.0,Calm,Calm,-,N/A,,Clear,0,2013-12-18 14:55:00
8:55 AM,35.1,25.0,67,29.77,10.0,WNW,5.8,-,N/A,,Clear,290,2013-12-18 15:55:00
9:55 AM,42.1,27.0,55,29.78,10.0,West,8.1,-,N/A,,Clear,280,2013-12-18 16:55:00
10:55 AM,51.1,28.9,43,29.75,10.0,NW,3.5,-,N/A,,Clear,310,2013-12-18 17:55:00
11:55 AM,54.0,28.0,37,29.73,10.0,West,4.6,-,N/A,,Clear,280,2013-12-18 18:55:00
12:55 PM,55.0,26.1,33,29.72,10.0,North,8.1,-,N/A,,Clear,10,2013-12-18 19:55:00
1:55 PM,52.0,28.9,41,29.73,10.0,North,10.4,-,N/A,,Clear,360,2013-12-18 20:55:00
2:55 PM,48.0,28.9,48,29.75,10.0,North,9.2,-,N/A,,Clear,360,2013-12-18 21:55:00
3:55 PM,42.1,28.0,58,29.77,10.0,NNW,9.2,-,N/A,,Clear,340,2013-12-18 22:55:00
4:55 PM,37.0,27.0,67,29.80,10.0,West,4.6,-,N/A,,Clear,260,2013-12-18 23:55:00
5:55 PM,35.1,27.0,72,29.82,10.0,West,6.9,-,N/A,,Clear,270,2013-12-19 00:55:00
6:55 PM,32.0,26.1,79,29.84,10.0,NNW,4.6,-,N/A,,Clear,330,2013-12-19 01:55:00
7:55 PM,28.9,24.1,82,29.88,10.0,NW,4.6,-,N/A,,Clear,320,2013-12-19 02:55:00
8:55 PM,30.0,24.1,79,29.88,10.0,Calm,Calm,-,N/A,,Clear,0,2013-12-19 03:55:00
9:55 PM,30.9,26.1,82,29.88,10.0,NE,8.1,-,N/A,,Partly Cloudy,50,2013-12-19 04:55:00
10:24 PM,30.2,26.6,86,29.85,10.0,NE,11.5,-,N/A,,Mostly Cloudy,50,2013-12-19 05:24:00
10:55 PM,30.0,25.0,82,29.88,10.0,NE,15.0,-,N/A,,Overcast,50,2013-12-19 05:55:00
11:55 PM,30.0,25.0,82,29.91,10.0,NE,11.5,-,N/A,,Overcast,50,2013-12-19 06:55:00